Tracking 18186 objects as of 29-March-2017
HD Live streaming from Space Station
objects crossing your sky now

TITAN 3 R/B(2)

Track TITAN 3 R/B(2) now!


NORAD ID: 20669
Int'l Code: 1990-056C
Perigee: 274.0 km
Apogee: 33,101.5 km
Inclination: 24.1 °
Period: 580.8 minutes
Semi major axis: 23058 km
RCS: 6.947 m2 (large)
Launch date: June 23, 1990
Source: United States (US)
Launch site: AIR FORCE EASTERN TEST RANGE (AFETR)

Note: This is a ROCKET BODY
Your satellite tracking list
Your tracking list is empty





NASA's NSSDC Master Catalog

Two Line Element Set (TLE):
1 20669U 90056C   17087.44100178 +.00001821 +00000-0 +61571-3 0  9996
2 20669 024.1150 120.6893 7118214 325.4114 004.2981 02.47941372225407
Source of the keplerian elements: AFSPC